Year,Month,Day,Hour,Minute,Value (Times are PST for temperature in C)
2018,06,16,00,00,15.10
2018,06,16,00,01,15.10
2018,06,16,00,02,15.10
2018,06,16,00,03,15.10
2018,06,16,00,04,15.10
2018,06,16,00,05,15.10
2018,06,16,00,06,15.10
2018,06,16,00,07,15.10
2018,06,16,00,08,15.10
2018,06,16,00,09,15.10
2018,06,16,00,10,15.10
2018,06,16,00,11,15.10
2018,06,16,00,12,15.10
2018,06,16,00,13,15.10
2018,06,16,00,14,15.10
2018,06,16,00,15,15.10
2018,06,16,00,16,15.10
2018,06,16,00,17,15.10
2018,06,16,00,18,15.10
2018,06,16,00,19,15.10
2018,06,16,00,20,15.10
2018,06,16,00,21,15.10
2018,06,16,00,22,15.10
2018,06,16,00,23,15.10
2018,06,16,00,24,15.10
2018,06,16,00,25,15.10
2018,06,16,00,26,15.10
2018,06,16,00,27,15.10
2018,06,16,00,28,15.10
2018,06,16,00,29,15.10
2018,06,16,00,30,15.10
2018,06,16,00,31,15.00
2018,06,16,00,32,15.00
2018,06,16,00,33,15.00
2018,06,16,00,34,15.00
2018,06,16,00,35,14.90
2018,06,16,00,36,14.90
2018,06,16,00,37,14.90
2018,06,16,00,38,14.90
2018,06,16,00,39,14.90
2018,06,16,00,40,14.90
2018,06,16,00,41,14.90
2018,06,16,00,42,14.90
2018,06,16,00,43,14.90
2018,06,16,00,44,14.90
2018,06,16,00,45,14.90
2018,06,16,00,46,14.90
2018,06,16,00,47,14.90
2018,06,16,00,48,14.90
2018,06,16,00,49,14.90
2018,06,16,00,50,14.90
2018,06,16,00,51,14.90
2018,06,16,00,52,14.90
2018,06,16,00,53,14.90
2018,06,16,00,54,14.90
2018,06,16,00,55,14.90
2018,06,16,00,56,14.90
2018,06,16,00,57,14.90
2018,06,16,00,58,14.80
2018,06,16,00,59,14.80
2018,06,16,01,00,14.80
2018,06,16,01,01,14.80
2018,06,16,01,02,14.80
2018,06,16,01,03,14.80
2018,06,16,01,04,14.80
2018,06,16,01,05,14.80
2018,06,16,01,06,14.80
2018,06,16,01,07,14.80
2018,06,16,01,08,14.80
2018,06,16,01,09,14.80
2018,06,16,01,10,14.80
2018,06,16,01,11,14.80
2018,06,16,01,12,14.80
2018,06,16,01,13,14.80
2018,06,16,01,14,14.80
2018,06,16,01,15,14.80
2018,06,16,01,16,14.80
2018,06,16,01,17,14.80
2018,06,16,01,18,14.80
2018,06,16,01,19,14.80
2018,06,16,01,20,14.80
2018,06,16,01,21,14.80
2018,06,16,01,22,14.80
2018,06,16,01,23,14.80
2018,06,16,01,24,14.80
2018,06,16,01,25,14.80
2018,06,16,01,26,14.80
2018,06,16,01,27,14.80
2018,06,16,01,28,14.80
2018,06,16,01,29,14.80
2018,06,16,01,30,14.80
2018,06,16,01,31,14.80
2018,06,16,01,32,14.70
2018,06,16,01,33,14.70
2018,06,16,01,34,14.70
2018,06,16,01,35,14.70
2018,06,16,01,36,14.70
2018,06,16,01,37,14.60
2018,06,16,01,38,14.60
2018,06,16,01,39,14.60
2018,06,16,01,40,14.50
2018,06,16,01,41,14.50
2018,06,16,01,42,14.50
2018,06,16,01,43,14.40
2018,06,16,01,44,14.40
2018,06,16,01,45,14.40
2018,06,16,01,46,14.40
2018,06,16,01,47,14.40
2018,06,16,01,48,14.40
2018,06,16,01,49,14.30
2018,06,16,01,50,14.30
2018,06,16,01,51,14.30
2018,06,16,01,52,14.30
2018,06,16,01,53,14.30
2018,06,16,01,54,14.30
2018,06,16,01,55,14.30
2018,06,16,01,56,14.30
2018,06,16,01,57,14.30
2018,06,16,01,58,14.30
2018,06,16,01,59,14.30
2018,06,16,02,00,14.30
2018,06,16,02,01,14.30
2018,06,16,02,02,14.30
2018,06,16,02,03,14.30
2018,06,16,02,04,14.30
2018,06,16,02,05,14.20
2018,06,16,02,06,14.20
2018,06,16,02,07,14.20
2018,06,16,02,08,14.20
2018,06,16,02,09,14.20
2018,06,16,02,10,14.30
2018,06,16,02,11,14.30
2018,06,16,02,12,14.30
2018,06,16,02,13,14.30
2018,06,16,02,14,14.30
2018,06,16,02,15,14.20
2018,06,16,02,16,14.30
2018,06,16,02,17,14.30
2018,06,16,02,18,14.30
2018,06,16,02,19,14.30
2018,06,16,02,20,14.30
2018,06,16,02,21,14.30
2018,06,16,02,22,14.30
2018,06,16,02,23,14.30
2018,06,16,02,24,14.30
2018,06,16,02,25,14.40
2018,06,16,02,26,14.40
2018,06,16,02,27,14.40
2018,06,16,02,28,14.50
2018,06,16,02,29,14.50
2018,06,16,02,30,14.50
2018,06,16,02,31,14.50
2018,06,16,02,32,14.50
2018,06,16,02,33,14.50
2018,06,16,02,34,14.50
2018,06,16,02,35,14.60
2018,06,16,02,36,14.60
2018,06,16,02,37,14.60
2018,06,16,02,38,14.60
2018,06,16,02,39,14.60
2018,06,16,02,40,14.60
2018,06,16,02,41,14.60
2018,06,16,02,42,14.70
2018,06,16,02,43,14.70
2018,06,16,02,44,14.70
2018,06,16,02,45,14.70
2018,06,16,02,46,14.70
2018,06,16,02,47,14.70
2018,06,16,02,48,14.70
2018,06,16,02,49,14.70
2018,06,16,02,50,14.70
2018,06,16,02,51,14.80
2018,06,16,02,52,14.80
2018,06,16,02,53,14.80
2018,06,16,02,54,14.80
2018,06,16,02,55,14.80
2018,06,16,02,56,14.80
2018,06,16,02,57,14.80
2018,06,16,02,58,14.80
2018,06,16,02,59,14.80
2018,06,16,03,00,14.70
2018,06,16,03,01,14.70
2018,06,16,03,02,14.70
2018,06,16,03,03,14.70
2018,06,16,03,04,14.70
2018,06,16,03,05,14.70
2018,06,16,03,06,14.70
2018,06,16,03,07,14.70
2018,06,16,03,08,14.70
2018,06,16,03,09,14.70
2018,06,16,03,10,14.60
2018,06,16,03,11,14.60
2018,06,16,03,12,14.60
2018,06,16,03,13,14.60
2018,06,16,03,14,14.60
2018,06,16,03,15,14.60
2018,06,16,03,16,14.60
2018,06,16,03,17,14.60
2018,06,16,03,18,14.60
2018,06,16,03,19,14.60
2018,06,16,03,20,14.50
2018,06,16,03,21,14.50
2018,06,16,03,22,14.50
2018,06,16,03,23,14.40
2018,06,16,03,24,14.40
2018,06,16,03,25,14.40
2018,06,16,03,26,14.40
2018,06,16,03,27,14.40
2018,06,16,03,28,14.40
2018,06,16,03,29,14.40
2018,06,16,03,30,14.30
2018,06,16,03,31,14.30
2018,06,16,03,32,14.30
2018,06,16,03,33,14.30
2018,06,16,03,34,14.30
2018,06,16,03,35,14.30
2018,06,16,03,36,14.30
2018,06,16,03,37,14.30
2018,06,16,03,38,14.30
2018,06,16,03,39,14.20
2018,06,16,03,40,14.20
2018,06,16,03,41,14.20
2018,06,16,03,42,14.20
2018,06,16,03,43,14.20
2018,06,16,03,44,14.20
2018,06,16,03,45,14.20
2018,06,16,03,46,14.10
2018,06,16,03,47,14.10
2018,06,16,03,48,14.10
2018,06,16,03,49,14.10
2018,06,16,03,50,14.10
2018,06,16,03,51,14.10
2018,06,16,03,52,14.00
2018,06,16,03,53,14.00
2018,06,16,03,54,13.90
2018,06,16,03,55,13.90
2018,06,16,03,56,13.90
2018,06,16,03,57,13.80
2018,06,16,03,58,13.80
2018,06,16,03,59,13.80
2018,06,16,04,00,13.70
2018,06,16,04,01,13.70
2018,06,16,04,02,13.70
2018,06,16,04,03,13.60
2018,06,16,04,04,13.60
2018,06,16,04,05,13.50
2018,06,16,04,06,13.50
2018,06,16,04,07,13.40
2018,06,16,04,08,13.40
2018,06,16,04,09,13.40
2018,06,16,04,10,13.30
2018,06,16,04,11,13.30
2018,06,16,04,12,13.30
2018,06,16,04,13,13.20
2018,06,16,04,14,13.20
2018,06,16,04,15,13.20
2018,06,16,04,16,13.10
2018,06,16,04,17,13.10
2018,06,16,04,18,13.10
2018,06,16,04,19,13.00
2018,06,16,04,20,13.00
2018,06,16,04,21,12.90
2018,06,16,04,22,12.90
2018,06,16,04,23,12.90
2018,06,16,04,24,12.80
2018,06,16,04,25,12.80
2018,06,16,04,26,12.80
2018,06,16,04,27,12.80
2018,06,16,04,28,12.70
2018,06,16,04,29,12.70
2018,06,16,04,30,12.70
2018,06,16,04,31,12.60
2018,06,16,04,32,12.60
2018,06,16,04,33,12.60
2018,06,16,04,34,12.60
2018,06,16,04,35,12.50
2018,06,16,04,36,12.50
2018,06,16,04,37,12.40
2018,06,16,04,38,12.40
2018,06,16,04,39,12.40
2018,06,16,04,40,12.40
2018,06,16,04,41,12.30
2018,06,16,04,42,12.30
2018,06,16,04,43,12.30
2018,06,16,04,44,12.30
2018,06,16,04,45,12.30
2018,06,16,04,46,12.20
2018,06,16,04,47,12.20
2018,06,16,04,48,12.20
2018,06,16,04,49,12.20
2018,06,16,04,50,12.20
2018,06,16,04,51,12.20
2018,06,16,04,52,12.20
2018,06,16,04,53,12.20
2018,06,16,04,54,12.10
2018,06,16,04,55,12.10
2018,06,16,04,56,12.10
2018,06,16,04,57,12.10
2018,06,16,04,58,12.00
2018,06,16,04,59,12.00
2018,06,16,05,00,11.90
2018,06,16,05,01,11.90
2018,06,16,05,02,11.90
2018,06,16,05,03,11.90
2018,06,16,05,04,11.90
2018,06,16,05,05,11.80
2018,06,16,05,06,11.80
2018,06,16,05,07,11.80
2018,06,16,05,08,11.80
2018,06,16,05,09,11.70
2018,06,16,05,10,11.70
2018,06,16,05,11,11.70
2018,06,16,05,12,11.70
2018,06,16,05,13,11.70
2018,06,16,05,14,11.70
2018,06,16,05,15,11.60
2018,06,16,05,16,11.60
2018,06,16,05,17,11.60
2018,06,16,05,18,11.60
2018,06,16,05,19,11.60
2018,06,16,05,20,11.60
2018,06,16,05,21,11.60
2018,06,16,05,22,11.60
2018,06,16,05,23,11.50
2018,06,16,05,24,11.50
2018,06,16,05,25,11.50
2018,06,16,05,26,11.50
2018,06,16,05,27,11.50
2018,06,16,05,28,11.40
2018,06,16,05,29,11.40
2018,06,16,05,30,11.40
2018,06,16,05,31,11.40
2018,06,16,05,32,11.40
2018,06,16,05,33,11.40
2018,06,16,05,34,11.30
2018,06,16,05,35,11.30
2018,06,16,05,36,11.30
2018,06,16,05,37,11.30
2018,06,16,05,38,11.20
2018,06,16,05,39,11.20
2018,06,16,05,40,11.20
2018,06,16,05,41,11.20
2018,06,16,05,42,11.10
2018,06,16,05,43,11.10
2018,06,16,05,44,11.10
2018,06,16,05,45,11.10
2018,06,16,05,46,11.10
2018,06,16,05,47,11.10
2018,06,16,05,48,11.10
2018,06,16,05,49,11.10
2018,06,16,05,50,11.10
2018,06,16,05,51,11.10
2018,06,16,05,52,11.10
2018,06,16,05,53,11.10
2018,06,16,05,54,11.10
2018,06,16,05,55,11.10
2018,06,16,05,56,11.10
2018,06,16,05,57,11.10
2018,06,16,05,58,11.10
2018,06,16,05,59,11.10
2018,06,16,06,00,11.10
2018,06,16,06,01,11.20
2018,06,16,06,02,11.20
2018,06,16,06,03,11.20
2018,06,16,06,04,11.20
2018,06,16,06,05,11.20
2018,06,16,06,06,11.20
2018,06,16,06,07,11.20
2018,06,16,06,08,11.20
2018,06,16,06,09,11.20
2018,06,16,06,10,11.20
2018,06,16,06,11,11.20
2018,06,16,06,12,11.20
2018,06,16,06,13,11.20
2018,06,16,06,14,11.20
2018,06,16,06,15,11.20
2018,06,16,06,16,11.20
2018,06,16,06,17,11.30
2018,06,16,06,18,11.30
2018,06,16,06,19,11.30
2018,06,16,06,20,11.30
2018,06,16,06,21,11.30
2018,06,16,06,22,11.30
2018,06,16,06,23,11.40
2018,06,16,06,24,11.40
2018,06,16,06,25,11.50
2018,06,16,06,26,11.50
2018,06,16,06,27,11.60
2018,06,16,06,28,11.70
2018,06,16,06,29,11.80
2018,06,16,06,30,11.90
2018,06,16,06,31,11.90
2018,06,16,06,32,12.00
2018,06,16,06,33,12.10
2018,06,16,06,34,12.10
2018,06,16,06,35,12.20
2018,06,16,06,36,12.20
2018,06,16,06,37,12.30
2018,06,16,06,38,12.40
2018,06,16,06,39,12.40
2018,06,16,06,40,12.50
2018,06,16,06,41,12.60
2018,06,16,06,42,12.60
2018,06,16,06,43,12.70
2018,06,16,06,44,12.70
2018,06,16,06,45,12.80
2018,06,16,06,46,12.80
2018,06,16,06,47,12.90
2018,06,16,06,48,13.00
2018,06,16,06,49,13.00
2018,06,16,06,50,13.10
2018,06,16,06,51,13.10
2018,06,16,06,52,13.20
2018,06,16,06,53,13.30
2018,06,16,06,54,13.40
2018,06,16,06,55,13.40
2018,06,16,06,56,13.50
2018,06,16,06,57,13.60
2018,06,16,06,58,13.60
2018,06,16,06,59,13.70
2018,06,16,07,00,13.80
2018,06,16,07,01,13.80
2018,06,16,07,02,13.90
2018,06,16,07,03,13.90
2018,06,16,07,04,14.00
2018,06,16,07,05,14.10
2018,06,16,07,06,14.10
2018,06,16,07,07,14.20
2018,06,16,07,08,14.20
2018,06,16,07,09,14.20
2018,06,16,07,10,14.30
2018,06,16,07,11,14.30
2018,06,16,07,12,14.40
2018,06,16,07,13,14.40
2018,06,16,07,14,14.50
2018,06,16,07,15,14.50
2018,06,16,07,16,14.60
2018,06,16,07,17,14.60
2018,06,16,07,18,14.60
2018,06,16,07,19,14.70
2018,06,16,07,20,14.70
2018,06,16,07,21,14.70
2018,06,16,07,22,14.80
2018,06,16,07,23,14.80
2018,06,16,07,24,14.90
2018,06,16,07,25,15.00
2018,06,16,07,26,15.00
2018,06,16,07,27,15.10
2018,06,16,07,28,15.10
2018,06,16,07,29,15.20
2018,06,16,07,30,15.20
2018,06,16,07,31,15.30
2018,06,16,07,32,15.40
2018,06,16,07,33,15.50
2018,06,16,07,34,15.50
2018,06,16,07,35,15.60
2018,06,16,07,36,15.70
2018,06,16,07,37,15.70
2018,06,16,07,38,15.80
2018,06,16,07,39,15.80
2018,06,16,07,40,15.90
2018,06,16,07,41,15.90
2018,06,16,07,42,15.90
2018,06,16,07,43,15.90
2018,06,16,07,44,16.00
2018,06,16,07,45,16.00
2018,06,16,07,46,16.10
2018,06,16,07,47,16.10
2018,06,16,07,48,16.20
2018,06,16,07,49,16.20
2018,06,16,07,50,16.20
2018,06,16,07,51,16.30
2018,06,16,07,52,16.30
2018,06,16,07,53,16.40
2018,06,16,07,54,16.40
2018,06,16,07,55,16.50
2018,06,16,07,56,16.50
2018,06,16,07,57,16.50
2018,06,16,07,58,16.60
2018,06,16,07,59,16.60
2018,06,16,08,00,16.70
2018,06,16,08,01,16.70
2018,06,16,08,02,16.70
2018,06,16,08,03,16.70
2018,06,16,08,04,16.70
2018,06,16,08,05,16.80
2018,06,16,08,06,16.80
2018,06,16,08,07,16.80
2018,06,16,08,08,16.90
2018,06,16,08,09,16.80
2018,06,16,08,10,16.90
2018,06,16,08,11,16.90
2018,06,16,08,12,17.00
2018,06,16,08,13,17.00
2018,06,16,08,14,17.10
2018,06,16,08,15,17.10
2018,06,16,08,16,17.10
2018,06,16,08,17,17.10
2018,06,16,08,18,17.10
2018,06,16,08,19,17.10
2018,06,16,08,20,17.10
2018,06,16,08,21,17.10
2018,06,16,08,22,17.20
2018,06,16,08,23,17.20
2018,06,16,08,24,17.20
2018,06,16,08,25,17.30
2018,06,16,08,26,17.30
2018,06,16,08,27,17.30
2018,06,16,08,28,17.30
2018,06,16,08,29,17.30
2018,06,16,08,30,17.30
2018,06,16,08,31,17.30
2018,06,16,08,32,17.40
2018,06,16,08,33,17.40
2018,06,16,08,34,17.40
2018,06,16,08,35,17.40
2018,06,16,08,36,17.30
2018,06,16,08,37,17.30
2018,06,16,08,38,17.40
2018,06,16,08,39,17.40
2018,06,16,08,40,17.40
2018,06,16,08,41,17.40
2018,06,16,08,42,17.50
2018,06,16,08,43,17.50
2018,06,16,08,44,17.60
2018,06,16,08,45,17.60
2018,06,16,08,46,17.70
2018,06,16,08,47,17.70
2018,06,16,08,48,17.80
2018,06,16,08,49,17.80
2018,06,16,08,50,17.80
2018,06,16,08,51,17.80
2018,06,16,08,52,17.80
2018,06,16,08,53,17.80
2018,06,16,08,54,17.70
2018,06,16,08,55,17.70
2018,06,16,08,56,17.70
2018,06,16,08,57,17.80
2018,06,16,08,58,17.80
2018,06,16,08,59,17.80
2018,06,16,09,00,17.80
2018,06,16,09,01,17.80
2018,06,16,09,02,17.80
2018,06,16,09,03,17.80
2018,06,16,09,04,17.80
2018,06,16,09,05,17.70
2018,06,16,09,06,17.70
2018,06,16,09,07,17.70
2018,06,16,09,08,17.70
2018,06,16,09,09,17.80
2018,06,16,09,10,17.80
2018,06,16,09,11,17.80
2018,06,16,09,12,17.80
2018,06,16,09,13,17.80
2018,06,16,09,14,17.80
2018,06,16,09,15,17.80
2018,06,16,09,16,17.80
2018,06,16,09,17,17.90
2018,06,16,09,18,17.90
2018,06,16,09,19,17.90
2018,06,16,09,20,17.90
2018,06,16,09,21,18.00
2018,06,16,09,22,18.10
2018,06,16,09,23,18.20
2018,06,16,09,24,18.20
2018,06,16,09,25,18.30
2018,06,16,09,26,18.30
2018,06,16,09,27,18.30
2018,06,16,09,28,18.40
2018,06,16,09,29,18.50
2018,06,16,09,30,18.50
2018,06,16,09,31,18.60
2018,06,16,09,32,18.60
2018,06,16,09,33,18.60
2018,06,16,09,34,18.60
2018,06,16,09,35,18.60
2018,06,16,09,36,18.60
2018,06,16,09,37,18.70
2018,06,16,09,38,18.70
2018,06,16,09,39,18.70
2018,06,16,09,40,18.70
2018,06,16,09,41,18.70
2018,06,16,09,42,18.70
2018,06,16,09,43,18.80
2018,06,16,09,44,18.80
2018,06,16,09,45,18.90
2018,06,16,09,46,19.00
2018,06,16,09,47,19.10
2018,06,16,09,48,19.20
2018,06,16,09,49,19.20
2018,06,16,09,50,19.30
2018,06,16,09,51,19.40
2018,06,16,09,52,19.40
2018,06,16,09,53,19.40
2018,06,16,09,54,19.40
2018,06,16,09,55,19.40
2018,06,16,09,56,19.40
2018,06,16,09,57,19.30
2018,06,16,09,58,19.30
2018,06,16,09,59,19.40
2018,06,16,10,00,19.40
2018,06,16,10,01,19.50
2018,06,16,10,02,19.50
2018,06,16,10,03,19.60
2018,06,16,10,04,19.70
2018,06,16,10,05,19.80
2018,06,16,10,06,19.90
2018,06,16,10,07,20.00
2018,06,16,10,08,20.10
2018,06,16,10,09,20.10
2018,06,16,10,10,20.20
2018,06,16,10,11,20.20
2018,06,16,10,12,20.10
2018,06,16,10,13,20.10
2018,06,16,10,14,20.10
2018,06,16,10,15,20.10
2018,06,16,10,16,20.20
2018,06,16,10,17,20.20
2018,06,16,10,18,20.30
2018,06,16,10,19,20.40
2018,06,16,10,20,20.60
2018,06,16,10,21,20.70
2018,06,16,10,22,20.80
2018,06,16,10,23,20.80
2018,06,16,10,24,20.80
2018,06,16,10,25,20.90
2018,06,16,10,26,20.80
2018,06,16,10,27,20.80
2018,06,16,10,28,20.80
2018,06,16,10,29,20.70
2018,06,16,10,30,20.70
2018,06,16,10,31,20.70
2018,06,16,10,32,20.80
2018,06,16,10,33,20.80
2018,06,16,10,34,20.80
2018,06,16,10,35,20.80
2018,06,16,10,36,20.90
2018,06,16,10,37,20.90
2018,06,16,10,38,20.90
2018,06,16,10,39,21.00
2018,06,16,10,40,21.10
2018,06,16,10,41,21.10
2018,06,16,10,42,21.20
2018,06,16,10,43,21.20
2018,06,16,10,44,21.20
2018,06,16,10,45,21.10
2018,06,16,10,46,21.00
2018,06,16,10,47,20.90
2018,06,16,10,48,20.90
2018,06,16,10,49,20.90
2018,06,16,10,50,20.80
2018,06,16,10,51,20.90
2018,06,16,10,52,20.90
2018,06,16,10,53,21.00
2018,06,16,10,54,21.10
2018,06,16,10,55,21.20
2018,06,16,10,56,21.30
2018,06,16,10,57,21.30
2018,06,16,10,58,21.30
2018,06,16,10,59,21.30
2018,06,16,11,00,21.40
2018,06,16,11,01,21.60
2018,06,16,11,02,21.70
2018,06,16,11,03,21.80
2018,06,16,11,04,21.80
2018,06,16,11,05,21.80
2018,06,16,11,06,21.80
2018,06,16,11,07,21.80
2018,06,16,11,08,21.80
2018,06,16,11,09,21.80
2018,06,16,11,10,21.70
2018,06,16,11,11,21.70
2018,06,16,11,12,21.60
2018,06,16,11,13,21.50
2018,06,16,11,14,21.50
2018,06,16,11,15,21.50
2018,06,16,11,16,21.50
2018,06,16,11,17,21.60
2018,06,16,11,18,21.60
2018,06,16,11,19,21.60
2018,06,16,11,20,21.60
2018,06,16,11,21,21.60
2018,06,16,11,22,21.70
2018,06,16,11,23,21.70
2018,06,16,11,24,21.70
2018,06,16,11,25,21.70
2018,06,16,11,26,21.80
2018,06,16,11,27,21.80
2018,06,16,11,28,21.90
2018,06,16,11,29,21.90
2018,06,16,11,30,21.90
2018,06,16,11,31,21.90
2018,06,16,11,32,21.90
2018,06,16,11,33,21.90
2018,06,16,11,34,22.00
2018,06,16,11,35,22.00
2018,06,16,11,36,22.00
2018,06,16,11,37,22.00
2018,06,16,11,38,22.00
2018,06,16,11,39,22.00
2018,06,16,11,40,22.10
2018,06,16,11,41,22.10
2018,06,16,11,42,22.10
2018,06,16,11,43,22.10
2018,06,16,11,44,22.10
2018,06,16,11,45,22.10
2018,06,16,11,46,22.10
2018,06,16,11,47,22.20
2018,06,16,11,48,22.20
2018,06,16,11,49,22.30
2018,06,16,11,50,22.20
2018,06,16,11,51,22.20
2018,06,16,11,52,22.30
2018,06,16,11,53,22.30
2018,06,16,11,54,22.30
2018,06,16,11,55,22.30
2018,06,16,11,56,22.40
2018,06,16,11,57,22.40
2018,06,16,11,58,22.40
2018,06,16,11,59,22.40
2018,06,16,12,00,22.50
2018,06,16,12,01,22.60
2018,06,16,12,02,22.70
2018,06,16,12,03,22.70
2018,06,16,12,04,22.80
2018,06,16,12,05,22.70
2018,06,16,12,06,22.60
2018,06,16,12,07,22.50
2018,06,16,12,08,22.50
2018,06,16,12,09,22.50
2018,06,16,12,10,22.60
2018,06,16,12,11,22.60
2018,06,16,12,12,22.70
2018,06,16,12,13,22.80
2018,06,16,12,14,22.70
2018,06,16,12,15,22.70
2018,06,16,12,16,22.60
2018,06,16,12,17,22.60
2018,06,16,12,18,22.60
2018,06,16,12,19,22.60
2018,06,16,12,20,22.70
2018,06,16,12,21,22.80
2018,06,16,12,22,22.80
2018,06,16,12,23,22.70
2018,06,16,12,24,22.60
2018,06,16,12,25,22.60
2018,06,16,12,26,22.50
2018,06,16,12,27,22.40
2018,06,16,12,28,22.40
2018,06,16,12,29,22.40
2018,06,16,12,30,22.40
2018,06,16,12,31,22.50
2018,06,16,12,32,22.60
2018,06,16,12,33,22.70
2018,06,16,12,34,22.80
2018,06,16,12,35,22.80
2018,06,16,12,36,22.90
2018,06,16,12,37,22.90
2018,06,16,12,38,22.90
2018,06,16,12,39,22.90
2018,06,16,12,40,22.90
2018,06,16,12,41,23.00
2018,06,16,12,42,23.00
2018,06,16,12,43,23.20
2018,06,16,12,44,23.20
2018,06,16,12,45,23.20
2018,06,16,12,46,23.10
2018,06,16,12,47,23.00
2018,06,16,12,48,23.00
2018,06,16,12,49,23.10
2018,06,16,12,50,23.10
2018,06,16,12,51,23.20
2018,06,16,12,52,23.30
2018,06,16,12,53,23.40
2018,06,16,12,54,23.50
2018,06,16,12,55,23.60
2018,06,16,12,56,23.50
2018,06,16,12,57,23.40
2018,06,16,12,58,23.30
2018,06,16,12,59,23.20
2018,06,16,13,00,23.10
2018,06,16,13,01,23.10
2018,06,16,13,02,23.10
2018,06,16,13,03,23.10
2018,06,16,13,04,23.10
2018,06,16,13,05,23.20
2018,06,16,13,06,23.20
2018,06,16,13,07,23.30
2018,06,16,13,08,23.30
2018,06,16,13,09,23.30
2018,06,16,13,10,23.40
2018,06,16,13,11,23.40
2018,06,16,13,12,23.30
2018,06,16,13,13,23.20
2018,06,16,13,14,23.00
2018,06,16,13,15,22.80
2018,06,16,13,16,22.60
2018,06,16,13,17,22.40
2018,06,16,13,18,22.20
2018,06,16,13,19,22.20
2018,06,16,13,20,22.10
2018,06,16,13,21,22.10
2018,06,16,13,22,22.10
2018,06,16,13,23,22.10
2018,06,16,13,24,22.10
2018,06,16,13,25,22.20
2018,06,16,13,26,22.20
2018,06,16,13,27,22.20
2018,06,16,13,28,22.20
2018,06,16,13,29,22.20
2018,06,16,13,30,22.20
2018,06,16,13,31,22.20
2018,06,16,13,32,22.30
2018,06,16,13,33,22.40
2018,06,16,13,34,22.50
2018,06,16,13,35,22.50
2018,06,16,13,36,22.50
2018,06,16,13,37,22.50
2018,06,16,13,38,22.60
2018,06,16,13,39,22.70
2018,06,16,13,40,22.70
2018,06,16,13,41,22.70
2018,06,16,13,42,22.70
2018,06,16,13,43,22.60
2018,06,16,13,44,22.70
2018,06,16,13,45,22.70
2018,06,16,13,46,22.80
2018,06,16,13,47,22.90
2018,06,16,13,48,23.00
2018,06,16,13,49,22.90
2018,06,16,13,50,22.90
2018,06,16,13,51,22.90
2018,06,16,13,52,23.00
2018,06,16,13,53,23.00
2018,06,16,13,54,23.00
2018,06,16,13,55,22.90
2018,06,16,13,56,22.90
2018,06,16,13,57,22.90
2018,06,16,13,58,22.80
2018,06,16,13,59,22.80
2018,06,16,14,00,22.80
2018,06,16,14,01,22.80
2018,06,16,14,02,22.80
2018,06,16,14,03,22.70
2018,06,16,14,04,22.60
2018,06,16,14,05,22.50
2018,06,16,14,06,22.60
2018,06,16,14,07,22.60
2018,06,16,14,08,22.70
2018,06,16,14,09,22.70
2018,06,16,14,10,22.60
2018,06,16,14,11,22.60
2018,06,16,14,12,22.60
2018,06,16,14,13,22.60
2018,06,16,14,14,22.70
2018,06,16,14,15,22.80
2018,06,16,14,16,22.90
2018,06,16,14,17,22.90
2018,06,16,14,18,22.90
2018,06,16,14,19,22.90
2018,06,16,14,20,23.00
2018,06,16,14,21,23.00
2018,06,16,14,22,23.10
2018,06,16,14,23,23.20
2018,06,16,14,24,23.30
2018,06,16,14,25,23.50
2018,06,16,14,26,23.60
2018,06,16,14,27,23.60
2018,06,16,14,28,23.70
2018,06,16,14,29,23.80
2018,06,16,14,30,23.90
2018,06,16,14,31,24.00
2018,06,16,14,32,24.10
2018,06,16,14,33,24.20
2018,06,16,14,34,24.30
2018,06,16,14,35,24.30
2018,06,16,14,36,24.30
2018,06,16,14,37,24.30
2018,06,16,14,38,24.20
2018,06,16,14,39,24.30
2018,06,16,14,40,24.30
2018,06,16,14,41,24.30
2018,06,16,14,42,24.30
2018,06,16,14,43,24.30
2018,06,16,14,44,24.40
2018,06,16,14,45,24.40
2018,06,16,14,46,24.40
2018,06,16,14,47,24.40
2018,06,16,14,48,24.40
2018,06,16,14,49,24.50
2018,06,16,14,50,24.50
2018,06,16,14,51,24.50
2018,06,16,14,52,24.60
2018,06,16,14,53,24.50
2018,06,16,14,54,24.50
2018,06,16,14,55,24.50
2018,06,16,14,56,24.60
2018,06,16,14,57,24.60
2018,06,16,14,58,24.50
2018,06,16,14,59,24.50
2018,06,16,15,00,24.50
2018,06,16,15,01,24.40
2018,06,16,15,02,24.50
2018,06,16,15,03,24.60
2018,06,16,15,04,24.70
2018,06,16,15,05,24.70
2018,06,16,15,06,24.80
2018,06,16,15,07,24.80
2018,06,16,15,08,24.80
2018,06,16,15,09,24.80
2018,06,16,15,10,24.90
2018,06,16,15,11,24.90
2018,06,16,15,12,24.80
2018,06,16,15,13,24.80
2018,06,16,15,14,24.80
2018,06,16,15,15,25.00
2018,06,16,15,16,25.10
2018,06,16,15,17,25.20
2018,06,16,15,18,25.30
2018,06,16,15,19,25.30
2018,06,16,15,20,25.30
2018,06,16,15,21,25.20
2018,06,16,15,22,25.20
2018,06,16,15,23,25.20
2018,06,16,15,24,25.20
2018,06,16,15,25,25.20
2018,06,16,15,26,25.30
2018,06,16,15,27,25.30
2018,06,16,15,28,25.30
2018,06,16,15,29,25.30
2018,06,16,15,30,25.30
2018,06,16,15,31,25.30
2018,06,16,15,32,25.20
2018,06,16,15,33,25.20
2018,06,16,15,34,25.10
2018,06,16,15,35,25.10
2018,06,16,15,36,25.00
2018,06,16,15,37,24.90
2018,06,16,15,38,25.00
2018,06,16,15,39,25.00
2018,06,16,15,40,25.10
2018,06,16,15,41,25.20
2018,06,16,15,42,25.20
2018,06,16,15,43,25.30
2018,06,16,15,44,25.30
2018,06,16,15,45,25.30
2018,06,16,15,46,25.40
2018,06,16,15,47,25.50
2018,06,16,15,48,25.60
2018,06,16,15,49,25.60
2018,06,16,15,50,25.60
2018,06,16,15,51,25.50
2018,06,16,15,52,25.40
2018,06,16,15,53,25.40
2018,06,16,15,54,25.30
2018,06,16,15,55,25.40
2018,06,16,15,56,25.30
2018,06,16,15,57,25.30
2018,06,16,15,58,25.20
2018,06,16,15,59,25.20
2018,06,16,16,00,25.20
2018,06,16,16,01,25.20
2018,06,16,16,02,25.20
2018,06,16,16,03,25.20
2018,06,16,16,04,25.10
2018,06,16,16,05,25.00
2018,06,16,16,06,24.80
2018,06,16,16,07,24.70
2018,06,16,16,08,24.60
2018,06,16,16,09,24.50
2018,06,16,16,10,24.40
2018,06,16,16,11,24.40
2018,06,16,16,12,24.30
2018,06,16,16,13,24.30
2018,06,16,16,14,24.30
2018,06,16,16,15,24.40
2018,06,16,16,16,24.50
2018,06,16,16,17,24.60
2018,06,16,16,18,24.60
2018,06,16,16,19,24.70
2018,06,16,16,20,24.70
2018,06,16,16,21,24.70
2018,06,16,16,22,24.70
2018,06,16,16,23,24.70
2018,06,16,16,24,24.80
2018,06,16,16,25,24.70
2018,06,16,16,26,24.70
2018,06,16,16,27,24.70
2018,06,16,16,28,24.50
2018,06,16,16,29,24.40
2018,06,16,16,30,24.40
2018,06,16,16,31,24.30
2018,06,16,16,32,24.20
2018,06,16,16,33,24.10
2018,06,16,16,34,24.10
2018,06,16,16,35,24.20
2018,06,16,16,36,24.20
2018,06,16,16,37,24.30
2018,06,16,16,38,24.20
2018,06,16,16,39,24.20
2018,06,16,16,40,24.20
2018,06,16,16,41,24.20
2018,06,16,16,42,24.20
2018,06,16,16,43,24.30
2018,06,16,16,44,24.30
2018,06,16,16,45,24.30
2018,06,16,16,46,24.30
2018,06,16,16,47,24.30
2018,06,16,16,48,24.30
2018,06,16,16,49,24.30
2018,06,16,16,50,24.30
2018,06,16,16,51,24.30
2018,06,16,16,52,24.20
2018,06,16,16,53,24.30
2018,06,16,16,54,24.30
2018,06,16,16,55,24.20
2018,06,16,16,56,24.20
2018,06,16,16,57,24.20
2018,06,16,16,58,24.20
2018,06,16,16,59,24.20
2018,06,16,17,00,24.20
2018,06,16,17,01,24.10
2018,06,16,17,02,24.00
2018,06,16,17,03,23.90
2018,06,16,17,04,23.80
2018,06,16,17,05,23.80
2018,06,16,17,06,23.80
2018,06,16,17,07,23.80
2018,06,16,17,08,23.80
2018,06,16,17,09,23.80
2018,06,16,17,10,23.80
2018,06,16,17,11,23.90
2018,06,16,17,12,24.10
2018,06,16,17,13,24.20
2018,06,16,17,14,24.30
2018,06,16,17,15,24.40
2018,06,16,17,16,24.50
2018,06,16,17,17,24.60
2018,06,16,17,18,24.70
2018,06,16,17,19,24.80